This demonstration page uses our WeatherBlox Daily Observations layout. Learn more.

Left ArrowRight Arrow

36.19886, -115.1175

Hourly Observations for February 18, 2022

Temp ( °F °C ) Dew Point ( °F °C ) Humidity (%) Winds ( mph kmh ) Pressure ( in mb ) Visibility ( mi km ) Precip ( " mm )
12:53 am 00:53 Clear 49 9.4 8 -13.3 19 19 NW 21 33 30.32 1027 10 16 0.00 0.00
1:53 am 01:53 Clear 48 8.9 8 -13.3 19 19 NW 6 9 30.33 1027 10 16 0.00 0.00
2:53 am 02:53 Clear 43 6.1 8 -13.3 24 24 Calm 30.33 1027 10 16 0.00 0.00
3:53 am 03:53 Clear 43 6.1 8 -13.3 24 24 Calm 30.33 1027 10 16 0.00 0.00
4:53 am 04:53 Clear 44 6.7 8 -13.3 23 23 NW 5 7 30.35 1028 10 16 0.00 0.00
5:53 am 05:53 Clear 44 6.7 9 -12.8 24 24 NW 7 11 30.37 1029 10 16 0.00 0.00
6:53 am 06:53 Sunny 43 6.1 9 -12.8 25 25 NW 6 9 30.39 1029 10 16 0.00 0.00
7:53 am 07:53 Sunny 48 8.9 10 -12.2 21 21 E 3 6 30.41 1030 10 16 0.00 0.00
8:53 am 08:53 Sunny 52 11.1 10 -12.2 18 18 NW 3 6 30.42 1030 10 16 0.00 0.00
9:53 am 09:53 Sunny 56 13.3 10 -12.2 16 16 NNE 7 11 30.40 1030 10 16 0.00 0.00
10:53 am 10:53 Sunny 59 15 10 -12.2 14 14 VRB 5 7 30.38 1029 10 16 0.00 0.00
11:53 am 11:53 Sunny 62 16.7 10 -12.2 13 13 ESE 3 6 30.35 1028 10 16 0.00 0.00
12:53 pm 12:53 Sunny 64 17.8 11 -11.7 12 12 SE 9 15 30.30 1026 10 16 0.00 0.00
1:53 pm 13:53 Sunny 65 18.3 11 -11.7 12 12 Calm 30.27 1025 10 16 0.00 0.00
2:53 pm 14:53 Sunny 67 19.4 11 -11.7 11 11 Calm 30.25 1024 10 16 0.00 0.00
3:53 pm 15:53 Sunny 67 19.4 11 -11.7 11 11 ESE 6 9 30.24 1024 10 16 0.00 0.00
4:53 pm 16:53 Sunny 66 18.9 12 -11.1 12 12 SE 5 7 30.24 1024 10 16 0.00 0.00
5:53 pm 17:53 Clear 64 17.8 13 -10.6 13 13 S 3 6 30.24 1024 10 16 0.00 0.00
6:53 pm 18:53 Clear 60 15.6 14 -10 16 16 W 7 11 30.27 1025 10 16 0.00 0.00
7:53 pm 19:53 Clear 58 14.4 15 -9.4 18 18 W 8 13 30.27 1025 10 16 0.00 0.00
8:53 pm 20:53 Clear 55 12.8 14 -10 20 20 Calm 30.27 1025 10 16 0.00 0.00
9:53 pm 21:53 Clear 54 12.2 15 -9.4 21 21 WNW 3 6 30.28 1025 10 16 0.00 0.00
10:53 pm 22:53 Clear 52 11.1 16 -8.9 24 24 WNW 5 7 30.27 1025 10 16 0.00 0.00
11:53 pm 23:53 Clear 51 10.6 16 -8.9 25 25 Calm 30.27 1025 10 16 0.00 0.00

Powered by AerisWeather